Deer Park, WA

9:29 PM PST on January 20, 2018 (GMT -0800)
Deer Park

Weather History for KDEW - May, 2013

Change the Weather History Date:

Friday, May 3, 2013

  Actual Average Record
Temperature  
Mean Temperature 57 °F 49 °F  
Max Temperature 71 °F 63 °F 83 °F (2016)
Min Temperature 42 °F 34 °F 28 °F (2001)
Degree Days  
Heating Degree Days 8 16  
Month to date heating degree days 55 50  
Since 1 July heating degree days 6531 6861  
Cooling Degree Days 0 0  
Month to date cooling degree days 0 0  
Year to date cooling degree days 0 0  
Growing Degree Days 8 (Base 50)    
Moisture  
Dew Point 37 °F    
Average Humidity 51    
Maximum Humidity 76    
Minimum Humidity 26    
Precipitation  
Precipitation T in 0.05 in 0.37 in (2012)
Month to date precipitation T 0.14  
Year to date precipitation 5.24 8.04  
Sea Level Pressure  
Sea Level Pressure 30.23 in    
Wind  
Wind Speed 5 mph (North)    
Max Wind Speed 13 mph    
Max Gust Speed 17 mph    
Visibility 10 miles    
Events      
T = Trace of Precipitation, MM = Missing Value Source: NWS Daily Summary

Daily Weather History Graph

Daily Weather History Graph

Search for Another Location

Airport or City:

Trip Planner

Search our weather history database for the weather conditions in past years. The results will help you decide how hot, cold, wet, or windy it might be!

Date:

Astronomy

May. 03, 2013 Rise Set
Actual Time 5:27 AM PDT 8:06 PM PDT
Civil Twilight 4:52 AM PDT 8:41 PM PDT
Nautical Twilight 4:08 AM PDT 9:26 PM PDT
Astronomical Twilight 3:16 AM PDT 10:18 PM PDT
Moon 2:23 AM PDT (5/3) 1:39 PM PDT (5/3)
Length of Visible Light 15h 48m
Length of Day
14h 38m
Waning Crescent, 36% of the Moon is Illuminated
May 3
Waning Crescent
May 9
New
May 17
First Quarter
May 24
Full
May 31
Last Quarter

Hourly Weather History & Observations

Time (PDT) Temp. Windchill Dew Point Humidity Pressure Visibility Wind Dir Wind Speed Gust Speed Precip Events Conditions
12:53 AM 48.0 °F - 37.9 °F 68% 30.26 in 10.0 mi NW 4.6 mph - N/A   Overcast
1:53 AM 48.9 °F - 39.0 °F 69% 30.25 in 10.0 mi Calm Calm - N/A   Overcast
2:53 AM 50.0 °F - 36.0 °F 59% 30.26 in 10.0 mi NW 4.6 mph - N/A   Overcast
3:53 AM 53.1 °F - 35.1 °F 50% 30.25 in 10.0 mi North 5.8 mph - N/A   Overcast
4:53 AM 48.9 °F - 36.0 °F 61% 30.25 in 10.0 mi NW 8.1 mph - N/A   Mostly Cloudy
5:53 AM 46.0 °F 43.1 °F 36.0 °F 68% 30.26 in 10.0 mi NW 5.8 mph - N/A   Clear
6:53 AM 51.1 °F - 37.9 °F 61% 30.27 in 10.0 mi NNW 4.6 mph - N/A   Clear
7:53 AM 55.0 °F - 37.9 °F 53% 30.27 in 10.0 mi NNW 5.8 mph - N/A   Clear
8:53 AM 59.0 °F - 39.0 °F 48% 30.27 in 10.0 mi NNE 9.2 mph - N/A   Clear
9:53 AM 61.0 °F - 37.9 °F 42% 30.26 in 10.0 mi North 8.1 mph - N/A   Partly Cloudy
10:53 AM 64.0 °F - 39.0 °F 40% 30.26 in 10.0 mi ENE 9.2 mph - N/A   Scattered Clouds
11:53 AM 63.0 °F - 37.9 °F 40% 30.26 in 10.0 mi NE 8.1 mph - N/A   Scattered Clouds
12:53 PM 64.0 °F - 37.0 °F 37% 30.25 in 10.0 mi Variable 5.8 mph - N/A   Mostly Cloudy
1:53 PM 66.0 °F - 36.0 °F 33% 30.22 in 10.0 mi NNE 5.8 mph - N/A   Partly Cloudy
2:53 PM 68.0 °F - 35.1 °F 30% 30.21 in 10.0 mi Calm Calm - N/A   Mostly Cloudy
3:53 PM 70.0 °F - 35.1 °F 28% 30.19 in 10.0 mi ENE 9.2 mph - N/A   Mostly Cloudy
4:53 PM 69.1 °F - 33.1 °F 26% 30.18 in 10.0 mi East 4.6 mph - N/A   Partly Cloudy
5:53 PM 69.1 °F - 34.0 °F 27% 30.19 in 10.0 mi Calm Calm - N/A   Partly Cloudy
6:53 PM 64.0 °F - 42.1 °F 45% 30.18 in 10.0 mi South 4.6 mph - N/A   Mostly Cloudy
7:53 PM 59.0 °F - 42.1 °F 53% 30.18 in 10.0 mi Calm Calm - N/A   Partly Cloudy
8:53 PM 55.9 °F - 37.9 °F 51% 30.19 in 10.0 mi Calm Calm - N/A   Mostly Cloudy
9:53 PM 48.9 °F - 39.0 °F 69% 30.22 in 10.0 mi NNW 4.6 mph - N/A   Scattered Clouds
10:53 PM 46.9 °F - 37.9 °F 71% 30.23 in 10.0 mi Calm Calm - N/A   Scattered Clouds
11:53 PM 44.1 °F 41.5 °F 37.9 °F 79% 30.25 in 10.0 mi NNW 4.6 mph - N/A   Mostly Cloudy